Regional Weather Roundup
Issued by NWS

Home | Current Version | Previous Version | Graphics & Text | Print | Product List | Glossary On
Versions: 1 2 3 4 5 6 7 8 9 10 11 12 13 14 15 16 17 18 19 20 21 22 23 24 25 26 27 28 29 30 31 32 33 34 35 36 37 38 39 40 41 42 43 44 45 46 47 48 49 50
000
ASUS43 KMKX 012221
RWRWI

WISCONSIN REGIONAL WEATHER ROUNDUP
NATIONAL WEATHER SERVICE MILWAUKEE/SULLIVAN WI
500 PM CDT MON SEP 01 2014

NOTE: "FAIR" INDICATES FEW OR NO CLOUDS BELOW 12,000 FEET WITH NO
SIGNIFICANT WEATHER AND/OR OBSTRUCTIONS TO VISIBILITY.

WIZ001-002-006>008-014>016-023>028-012300-
NORTHWEST WISCONSIN

CITY           SKY/WX    TMP DP  RH WIND       PRES   REMARKS
SUPERIOR ARPT  MOSUNNY   73  54  51 W13G21    29.69R
ASHLAND        SUNNY     72  57  59 W9        29.68R
HAYWARD        PTSUNNY   72  56  57 W10       29.71R
SIREN          MOSUNNY   73  50  44 NW13G21   29.74R
RICE LAKE      SUNNY     73  54  52 W10G17    29.74S
LADYSMITH      PTSUNNY   74  57  56 W14       29.74R
EAU CLAIRE     SUNNY     75  59  57 W12       29.73R
MENOMONIE      PTCLDY    77  55  45 W13G18    29.74R
NEW RICHMOND   MOSUNNY   75  53  45 NW10      29.76R
OSCEOLA        SUNNY     74  54  48 W15       29.77S
$$

WIZ003>005-009-010-017-018-012300-
NORTH CENTRAL WISCONSIN

CITY           SKY/WX    TMP DP  RH WIND       PRES   REMARKS
WOODRUFF       SUNNY     72  58  62 NW12      29.69R
RHINELANDER    SUNNY     71  58  63 W15G22    29.70R
EAGLE RIVER    MOSUNNY   70  55  60 W13G18    29.68R
LAND O LAKES   MOSUNNY   70  57  63 W10       29.69R
PHILLIPS       SUNNY     70  56  60 W7        29.71R
TOMAHAWK       MOSUNNY   71  58  61 W12G18    29.71R
MEDFORD        MOSUNNY   71  58  63 W10G18    29.73R
MERRILL        SUNNY     73  58  60 W12G22    29.71R
$$

WIZ029-030-035-036-043>047-012300-
CENTRAL WISCONSIN

CITY           SKY/WX    TMP DP  RH WIND       PRES   REMARKS
WAUSAU         SUNNY     74  60  61 W14       29.69R
MOSINEE        MOSUNNY   73  61  64 W13G21    29.72R
MARSHFIELD     MOSUNNY   74  59  59 W15G21    29.73R
STEVENS POINT  SUNNY     73  60  62 W13G18    29.71R
WAUPACA        SUNNY     78  65  63 W14       29.70S HX  80
WAUTOMA        MOSUNNY   74  67  78 W8        29.73R
WISC RAPIDS    SUNNY     76  60  57 NW14      29.73R
CAMP DOUGLAS   SUNNY     74  68  80 W12       29.74R
$$

WIZ011>013-019>022-031-037>040-048>050-012300-
NORTHEAST WISCONSIN

CITY           SKY/WX    TMP DP  RH WIND       PRES   REMARKS
ANTIGO         SUNNY     71  62  74 W10       29.71R
STURGEON BAY   SUNNY     73  64  73 W13G22    29.66S
GREEN BAY      MOSUNNY   75  67  76 SW9       29.67S
MANITOWOC      PTSUNNY   75  66  73 W12G20    29.68S
APPLETON       LGT RAIN  72  64  78 SW8       29.70R
CLINTONVILLE   PTSUNNY   77  61  57 W12G18    29.68R
OSHKOSH        LGT RAIN  74  66  76 SW5       29.69R
$$

WIZ032>034-041-042-053>061-012300-
SOUTHWEST WISCONSIN

CITY           SKY/WX    TMP DP  RH WIND       PRES   REMARKS
LA CROSSE      MOSUNNY   80  61  52 NW10      29.74R HX  81
SPARTA         SUNNY     76  61  59 W8        29.75R
VIROQUA        FAIR      74  61  64 NW10      29.78R
BOSCOBEL       MOSUNNY   79  61  53 NW14      29.76R HX  80
PRAIRIE DU CHI SUNNY     79  60  52 W10G17    29.76R HX  80
PLATTEVILLE    FAIR      76  68  77 W3G16     29.78R
$$

WIZ056-057-062-063-064-067-068-012300-
SOUTH CENTRAL WISCONSIN

CITY           SKY/WX    TMP DP  RH WIND       PRES   REMARKS
BARABOO/DELLS  PTSUNNY   72  58  62 W10       29.75R
LONE ROCK      MOSUNNY   82  64  54 W13       29.74R HX  83
WATERTOWN      PTSUNNY   76  65  70 W8        29.73S
MADISON        PTSUNNY   73  67  81 VRB5      29.74R
MIDDLETON      FAIR      75  68  79 SW5       29.76R
MONROE         TSTM      77  64  65 W17G24    29.77R
JANESVILLE     PTSUNNY   82  63  51 W12       29.74R HX  83
$$

WIZ051-052-058>065-066-070>072-012300-
SOUTHEAST WISCONSIN

CITY           SKY/WX    TMP DP  RH WIND       PRES   REMARKS
MILWAUKEE      MOSUNNY   81  63  54 W16G22    29.72R HX  82
WAUKESHA       PTSUNNY   77  63  61 SW15G23   29.74R
MILWAUKEE/TIMM PTSUNNY   79  61  53 W14G23    29.73R HX  80
RACINE         MOSUNNY   81  65  58 W10G22    29.74R HX  83
BURLINGTON     MOSUNNY   79  65  62 W10       29.74S HX  81
KENOSHA        PTSUNNY   80  66  62 W16G24    29.74R HX  82
FOND DU LAC    MOSUNNY   76  65  68 SW10G18   29.71R
SHEBOYGAN      MOSUNNY   76  64  66 W15G22    29.70S
WEST BEND      PTSUNNY   77  63  61 W15       29.72R
JUNEAU         MOSUNNY   75  65  71 SW14      29.74R
$$

LSZ147-162-012300-
LAKE SUPERIOR

STATION/POSITION TIME  TEMP    WIND        PRES    WAVE
                       AIR SEA DIR/SP/G            HT/PER
                 (UTC) (F)     (DEG/KT/KT) (MB)    (FT/S)
W MID LAKE BUOY  2150   62 57  240/ 16/ 17 1002.4R   2/ 4
DEVILS ISLAND    2200   65     250/ 14/ 18 1003.7R
PORT WING        2140   70     250/  9/ 11 1004.7S
SAXON HARBOR     2100   71     280/  6/ 11 1004.4
$$

LMZ867-665-643>646-012300-
LAKE MICHIGAN

STATION/POSITION TIME  TEMP    WIND        PRES    WAVE
                       AIR SEA DIR/SP/G            HT/PER
                 (UTC) (F)     (DEG/KT/KT) (MB)    (FT/S)
N MID LAKE BUOY  2150   67 65  220/ 12/ 12 1003.4R   3/ 5
NORTHPORT PIER   2100   74     230/  5/ 13 1003.4S
KEWAUNEE LAKESHO 2200   75     260/ 11/ 16 1003.7F
SHEBOYGAN LAKESH 2200   76 57  250/ 15/ 17 1005.4S
ATWATER BUOY     2200   74     240/ 17/ 21 1007.3R
MILWAUKEE LAKESH 2200   80     270/ 16/ 24   N/A
S MID LAKE BUOY  2150   74 70  220/ 12/ 14 1006.4S   2/ 5
KENOSHA   LAKESH 2200   81     250/ 12/ 22 1006.8R
$$

TC  - TEMPERATURE IN CELSIUS
VSB - VISIBILITY IN STATUTE MILES
WCI - WIND CHILL INDEX
HX  - HEAT INDEX



USA.gov is the U.S. government's official web portal to all federal, state and local government web resources and services.